A/2019 O3

Japanese version
Home page
Updated on December 9, 2019

---------------------------------------------------------------------

* Profile

Discovery Date July 26, 2019
Magnitude 19.30 mag
Discoverer Q.-Z. Ye (Palomar Mountain--ZTF)

* Pictures

* Orbital Elements

Epoch 2021 Mar. 7.0 TT = JDT 2459280.5
T 2021 Mar. 8.12796 TT                                  Williams
q   8.8187745            (2000.0)            P               Q
z  -0.0002753      Peri.   60.06074     +0.25483390     -0.43684391
 +/-0.0000098      Node   300.37997     -0.73841036     +0.48811223
e   1.0024279      Incl.   89.81358     +0.62434752     +0.75558842
H   10.0
From 77 observations 2019 May 14-Oct. 26, mean residual 0".4.

* Magnitudes Graph

        H = 10.0  G = 0.15

---------------------------------------------------------------------

The orbital elements are published on M.P.E.C. 2019-V116.
The magnitudes graphs are made with Comet for Windows.

---------------------------------------------------------------------

Copyright(C) Seiichi Yoshida (comet@aerith.net). All rights reserved.